Regional Weather Roundup
Issued by NWS Newport/Morehead, NC

Current Version | Previous Version | Graphics & Text | Print | Product List | Glossary Off
Versions: 1 2 3 4 5 6 7 8 9 10 11 12 13 14 15 16 17 18 19 20 21 22 23 24 25 26 27 28 29 30 31 32 33 34 35 36 37 38 39 40 41 42 43 44 45 46 47 48 49 50
000 ASUS42 KMHX 010013 RWRMHX WEATHER ROUNDUP FOR EASTERN NORTH CAROLINA NATIONAL WEATHER SERVICE NEWPORT/MOREHEAD CITY NC 800 PM EDT TUE MAY 31 2016 NOTE: "FAIR" INDICATES FEW OR NO CLOUDS BELOW 12,000 FEET WITH NO SIGNIFICANT WEATHER AND/OR OBSTRUCTIONS TO VISIBILITY NCZ015>017-031-032-045>047-102-103-010100- NORTH COAST CITY SKY/WX TMP DP RH WIND PRES REMARKS EDENTON CLOUDY 75 67 76 E7 29.96R ELIZABETH CITY PTCLDY 73 67 81 E9 29.96R KITTY HAWK MOCLDY 70 66 88 NE5 29.96R MANTEO CLOUDY 70 69 95 E12 29.96S $$ NCZ045>047-081-094-103-104-010100- CENTRAL COAST CITY SKY/WX TMP DP RH WIND PRES REMARKS FRISCO MOCLDY 74 71 91 NE6 29.94R $$ NCZ095-097-098-100-101-010100- SOUTHERN COAST CITY SKY/WX TMP DP RH WIND PRES REMARKS BEAUFORT CLOUDY 77 73 87 E8 29.92R CEDAR ISLAND NOT AVBL JACKSONVILLE CLOUDY 75 72 90 NE7 29.91R PINEY ISLAND PTCLDY N/A N/A N/A NE15 29.93R WILMINGTON CLOUDY 74 72 93 NE6 29.89S $$ NCZ011>013-027>030-043-044-078>080-089-090>093-098-010100- COASTAL PLAIN CITY SKY/WX TMP DP RH WIND PRES REMARKS AHOSKIE CLOUDY 76 69 79 CALM 29.95R CLINTON CLOUDY 75 73 92 CALM 29.93R ELIZABETHTOWN RAIN 75 72 89 CALM 29.91S GOLDSBORO MOCLDY 74 74 100 E6 29.92R GREENVILLE MOCLDY 73 73 100 E5 29.95S HAVELOCK CLOUDY 75 72 90 NE9 29.93R KENANSVILLE CLOUDY 75 71 89 CALM 29.93R KINSTON NOT AVBL NEW BERN CLOUDY 74 71 91 NE7 29.94R RICHLANDS LGT RAIN 74 72 93 NE7 29.93R ROCKY MOUNT PTCLDY 76 70 82 SE3 29.94R WASHINGTON PTCLDY 74 71 92 E6 29.94R WHITEVILLE CLOUDY 73 71 91 CALM 29.90S $$ AMZ130-135-150-152-154-156-158-170-250-252-270-ANZ085-086-088-633-658-670-010100- MARINE OBSERVATIONS STATION/POSITION TIME TEMP WIND PRES WAVE SWELL AIR SEA DIR/SP/G HT/PER HT/PER (UTC) (F) (DEG/KT/KT) (MB) (FT/S) (FT/S) CHESAPEAKE LIGHT 0000 70 90/ 4/ 4 1015.5 64 E VA BEACH 2350 68 67 30/ 8/ 8 1014.5 4/ 8 3/ 8 DUCK 2306 69 61 N/A 2 E DUCK 2311 69 N/A 3/ 8 OREGON INLET 2306 71 74 N/A 13E OREGON INLT 0000 70 N/A 4/ 8 HATTERAS CG 2306 75 75 N/A DIAMOND BUOY 2350 76 81 180/ 21/ 23 1013.4 3/ 8 2/13 CAPE LOOKOUT 0000 73 140/ 6/ 6 1012.6 BEAUFORT LAB 2306 78 75 N/A 30 SE NEW RVR IN 2325 76 N/A 4/ 6 27 SE WRIGHTSVLE 2308 78 76 90/ 6/ 8 1011.6 5 SE WRIGHTSVLE 2308 76 76 60/ 14/ 17 1012.3 225 S CAPE HAT 2350 77 77 150/ 12/ 14 1014.1 5/ 8 3/ 8 41 SE CHARLESTON 2350 76 78 280/ 4/ 4 1011.8 3/ 8 3/ 8 $$

USA.gov is the U.S. government's official web portal to all federal, state and local government web resources and services.